Regional Weather Roundup
Issued by NWS

Home | Current Version | Previous Version | Graphics & Text | Print | Product List | Glossary On
Versions: 1 2 3 4 5 6 7 8 9 10 11 12 13 14 15 16 17 18 19 20 21 22 23 24 25 26 27 28 29 30 31 32 33 34 35 36 37 38 39 40 41 42 43 44 45 46 47 48 49 50
000
ASUS45 KABQ 190810
RWRNM
WEATHER ROUNDUP FOR NEW MEXICO
NATIONAL WEATHER SERVICE ALBUQUERQUE NM
200 AM MDT FRI SEP 19 2014

NOTE: "FAIR" MEANS FEW OR NO CLOUDS BELOW 12,000 FEET AGL WITH NO
       SIGNIFICANT WEATHER OR OBSTRUCTIONS TO VISION.

      THIS PRODUCT IS RELEASED AS TWO VERSIONS.  ONE VERSION NEAR
      THE TOP OF THE HOUR CONTAINING PRELIMINARY DATA FROM ALBUQUERQUE
      AND OTHER STATIONS.  A FINAL VERSION WITH ADDITIONAL DATA IS
      ISSUED ABOUT 10 MINUTES AFTER THE HOUR.

NMZ501-503-504-510>518-190900-
NORTHWEST PLATEAU/NORTHCENTRAL MOUNTAINS

CITY           SKY/WX    TMP DP  RH WIND       PRES   REMARKS
FARMINGTON     CLEAR     65  42  43 E9        30.03R
LOS ALAMOS     CLEAR     59  54  85 S6        30.19S
SANTA FE       PTCLDY    59  52  77 SW6       30.14S
TAOS           CLEAR     54  46  76 S9        30.19S
ANGEL FIRE     CLOUDY    42  39  91 CALM      30.27F FOG

$$
NMZ402-403-502-505>509-190900-
WESTCENTRAL MOUNTAINS/SOUTHWEST MOUNTAINS

CITY           SKY/WX    TMP DP  RH WIND       PRES   REMARKS
GALLUP         CLEAR     51  44  77 CALM      30.12R
GRANTS         CLEAR     54  46  76 CALM      30.15S
SILVER CITY    FOG       61  61 100 CALM      30.07F VSB<1/4

$$
NMZ407-409-411-412-190900-
SOUTHERN DESERTS

CITY           SKY/WX    TMP DP  RH WIND       PRES   REMARKS
LORDSBURG      CLOUDY    63  63 100 MISG      30.00S
DEMING         MOCLDY    64  63  96 CALM      30.00S
LAS CRUCES     DRIZZLE   64  63  97 CALM      30.01S
ALAMOGORDO     CLOUDY    64  64 100 N3        30.00S FOG
T OR C         CLOUDY    62  62 100 NW3       30.01F

$$
NMZ519>523-190900-
CENTRAL VALLEYS/CENTRAL HIGHLANDS

CITY           SKY/WX    TMP DP  RH WIND       PRES   REMARKS
ALBUQUERQUE    MOCLDY    68  57  68 CALM      30.07F
DOUBLE EAGLE   PTCLDY    59  56  91 CALM      30.10F
MORIARTY ARPT  CLOUDY    58  54  86 CALM      30.14S
CLINES CORNERS CLOUDY    58  56  93 E7        30.16F
BELEN          CLOUDY    63  59  87 CALM      30.06F
SOCORRO        FAIR      62  60  92 SW5       30.03F

$$
NMZ524>526-539-540-190900-
SOUTHCENTRAL MOUNTAINS

CITY           SKY/WX    TMP DP  RH WIND       PRES   REMARKS
RUIDOSO        LGT RAIN  57  57 100 SE3       30.16S

$$
NMZ527>531-190900-
NORTHEAST HIGHLANDS/NORTHEAST PLAINS

CITY           SKY/WX    TMP DP  RH WIND       PRES   REMARKS
LAS VEGAS      LGT RAIN  57  56  96 S7        30.18S
RATON          CLOUDY    60  58  92 SW6       30.13F
CLAYTON        CLOUDY    62  59  90 S9        30.08S

$$
NMZ532>537-190900-
EASTCENTRAL PLAINS

CITY           SKY/WX    TMP DP  RH WIND       PRES   REMARKS
TUCUMCARI      CLOUDY    67  62  84 SE7       30.03F
CANNON AFB     CLOUDY    64  61  88 SE8       30.06S
CLOVIS AIRPORT   N/A     64  61  88 SE8       30.08S

$$
NMZ028-029-538-190900-
SOUTHEAST PLAINS

CITY           SKY/WX    TMP DP  RH WIND       PRES   REMARKS
ROSWELL        RAIN      67  65  93 E9        29.98F FOG
CARLSBAD       LGT RAIN  68  32  26 SE14      29.92F
HOBBS          LGT RAIN  66  66 100 E13       30.01S


$$



USA.gov is the U.S. government's official web portal to all federal, state and local government web resources and services.